Location: Olda
(45.8833°N, 9.5500°E)
Time: 19:13:41
(UTC+00:00)

Cosmos 2084 Rocket - Pass Details

Date: 03 March 2021
Orbit: 528 x 653 km, 62.8° (Epoch: 12 April)

Event Time Altitude Azimuth Distance (km) Brightness Sun altitude
Rises 18:24:10 0° 319° (NW) 2,808 7.7 -13.5°
Reaches altitude 10° 18:26:22 10° 317° (NW) 1,925 6.8 -13.8°
Maximum altitude 18:30:43 73° 233° (SW) 637 3.7 -14.6°
Enters shadow 18:35:01 11° 149° (SSE) 1,914 5.7 -15.3°
